| time (UTC) | temp F | wind direction | speed knots | gust knots | rain 1hr in | rain 24hr in | rain mn in | humidity % | barometer mb |
| 20260503195805 | 68 | 0 | 1.7 | 0.0 | 0.00 | 0.00 | 0.00 | 34 | 1012.0 |
| 20260503192804 | 70 | 110 | 4.3 | 0.0 | 0.00 | 0.00 | 0.00 | 32 | 1012.0 |
| 20260503185805 | 72 | 110 | 5.2 | 0.0 | 0.00 | 0.00 | 0.00 | 26 | 1012.0 |
| 20260503182804 | 72 | 110 | 4.3 | 0.0 | 0.00 | 0.00 | 0.00 | 28 | 1011.0 |
| 20260503175805 | 73 | 110 | 4.3 | 0.0 | 0.00 | 0.00 | 0.00 | 27 | 1011.0 |
| 20260503172804 | 75 | 100 | 2.6 | 0.0 | 0.00 | 0.00 | 0.00 | 29 | 1011.0 |
| 20260503072804 | 61 | 0 | 0.9 | 0.0 | 0.00 | 0.00 | 0.00 | 41 | 1017.0 |
| 20260503052803 | 46 | 0 | 1.7 | 0.0 | 0.00 | 0.00 | 0.00 | 75 | 1017.0 |
| 20260503045804 | 45 | 0 | 0.0 | 0.0 | 0.00 | 0.00 | 0.00 | 81 | 1017.0 |
| 20260503042803 | 43 | 0 | 0.0 | 0.0 | 0.00 | 0.00 | 0.00 | 81 | 1017.0 |
| 20260503035804 | 43 | 0 | 0.9 | 0.0 | 0.00 | 0.00 | 0.00 | 81 | 1017.0 |
| 20260503032804 | 39 | 0 | 0.0 | 0.0 | 0.00 | 0.00 | 0.00 | 93 | 1017.0 |
| 20260503025804 | 43 | 0 | 0.0 | 0.0 | 0.00 | 0.00 | 0.00 | 81 | 1017.0 |
| 20260503022803 | 43 | 0 | 0.0 | 0.0 | 0.00 | 0.00 | 0.00 | 81 | 1017.0 |
| 20260503015804 | 43 | 0 | 0.0 | 0.0 | 0.00 | 0.00 | 0.00 | 81 | 1017.0 |
| 20260503012803 | 45 | 0 | 0.0 | 0.0 | 0.00 | 0.00 | 0.00 | 75 | 1017.0 |
| 20260503005804 | 43 | 0 | 0.0 | 0.0 | 0.00 | 0.00 | 0.00 | 81 | 1017.0 |
| 20260503002803 | 46 | 0 | 0.0 | 0.0 | 0.00 | 0.00 | 0.00 | 70 | 1017.0 |
| 20260502235804 | 50 | 210 | 1.7 | 0.0 | 0.00 | 0.00 | 0.00 | 61 | 1018.0 |
| 20260502232804 | 48 | 0 | 0.0 | 0.0 | 0.00 | 0.00 | 0.00 | 66 | 1018.0 |
| 20260502225804 | 52 | 0 | 0.9 | 0.0 | 0.00 | 0.00 | 0.00 | 53 | 1018.0 |
| 20260502222803 | 52 | 0 | 0.9 | 0.0 | 0.00 | 0.00 | 0.00 | 53 | 1018.0 |
| 20260502215804 | 52 | 0 | 0.9 | 0.0 | 0.00 | 0.00 | 0.00 | 53 | 1018.0 |
| 20260502212804 | 55 | 0 | 1.7 | 0.0 | 0.00 | 0.00 | 0.00 | 43 | 1018.0 |
| 20260502205805 | 57 | 0 | 0.0 | 0.0 | 0.00 | 0.00 | 0.00 | 41 | 1018.0 |
| 20260502202904 | 63 | 0 | 1.7 | 0.0 | 0.00 | 0.00 | 0.00 | 33 | 1018.0 |